Weather History for KCHA - October, 2013

Change the Weather History Date:

Wednesday, October 23, 2013

  Actual Average Record
Temperature  
Mean Temperature 49 °F 59 °F  
Max Temperature 57 °F 71 °F 88 °F (1941)
Min Temperature 40 °F 47 °F 28 °F (1974)
Degree Days  
Heating Degree Days 16 7  
Month to date heating degree days 54 94  
Since 1 July heating degree days 54 109  
Cooling Degree Days 0 1  
Month to date cooling degree days 78 44  
Year to date cooling degree days 1748 1733  
Moisture  
Dew Point 38 °F    
Average Humidity 63    
Maximum Humidity 89    
Minimum Humidity 36    
Precipitation  
Precipitation 0.00 in 0.10 in 2.31 in (2007)
Month to date precipitation 0.16 2.41  
Year to date precipitation 56.47 41.71  
Snow  
Snow 0.00 in 0.00 in - ()
Month to date snowfall 0.0 0.0  
Since 1 July snowfall 0.0 0.0  
Since 1 September snowfall 0.0 0.0  
Snow Depth 0.00 in    
Sea Level Pressure  
Sea Level Pressure 29.99 in    
Wind  
Wind Speed 8 mph (NW)    
Max Wind Speed 20 mph    
Max Gust Speed 25 mph    
Visibility 10 miles    
Events      
T = Trace of Precipitation, MM = Missing Value Source: NWS Daily Summary

Daily Weather History Graph

Daily Weather History Graph

Search for Another Location

Airport or City:

Trip Planner

Search our weather history database for the weather conditions in past years. The results will help you decide how hot, cold, wet, or windy it might be!

Date:

Astronomy

Oct. 23, 2013 Rise Set
Actual Time 7:53 AM EDT 6:55 PM EDT
Civil Twilight 7:28 AM EDT 7:21 PM EDT
Nautical Twilight 6:58 AM EDT 7:51 PM EDT
Astronomical Twilight 6:29 AM EDT 8:20 PM EDT
Moon 10:31 PM EDT (10/23) 12:04 PM EDT (10/23)
Length of Visible Light 11h 53m
Length of Day
11h 01m
Waning Gibbous, 79% of the Moon is Illuminated
Oct 23
Waning Gibbous
Oct 26
Last Quarter
Nov 3
New
Nov 10
First Quarter
Nov 17
Full

Hourly Weather History & Observations

Time (EDT) Temp. Windchill Dew Point Humidity Pressure Visibility Wind Dir Wind Speed Gust Speed Precip Events Conditions
12:53 AM 52.0 °F - 48.9 °F 89% 29.88 in 10.0 mi Calm Calm - N/A   Clear
1:53 AM 55.9 °F - 48.9 °F 77% 29.88 in 10.0 mi SW 4.6 mph - N/A   Clear
2:53 AM 54.0 °F - 46.9 °F 77% 29.88 in 10.0 mi WSW 3.5 mph - N/A   Clear
3:53 AM 53.1 °F - 46.9 °F 80% 29.86 in 10.0 mi SW 6.9 mph - N/A   Clear
4:53 AM 53.1 °F - 46.0 °F 77% 29.85 in 10.0 mi WSW 5.8 mph - N/A   Clear
5:53 AM 51.1 °F - 44.1 °F 77% 29.87 in 10.0 mi Calm Calm - N/A   Scattered Clouds
6:53 AM 51.1 °F - 43.0 °F 74% 29.88 in 10.0 mi West 3.5 mph - N/A   Scattered Clouds
7:53 AM 50.0 °F - 42.1 °F 74% 29.91 in 10.0 mi West 8.1 mph - N/A   Scattered Clouds
8:53 AM 50.0 °F - 41.0 °F 71% 29.94 in 10.0 mi NW 8.1 mph - N/A   Scattered Clouds
9:53 AM 51.1 °F - 37.0 °F 59% 29.98 in 10.0 mi NW 16.1 mph 25.3 mph N/A   Mostly Cloudy
10:53 AM 53.1 °F - 37.0 °F 55% 30.01 in 10.0 mi WNW 15.0 mph - N/A   Mostly Cloudy
11:53 AM 54.0 °F - 35.1 °F 49% 30.04 in 10.0 mi WNW 13.8 mph 20.7 mph N/A   Mostly Cloudy
12:53 PM 54.0 °F - 34.0 °F 47% 30.04 in 10.0 mi NW 13.8 mph 21.9 mph N/A   Scattered Clouds
1:53 PM 55.0 °F - 33.8 °F 45% 30.04 in 10.0 mi North 11.5 mph 20.7 mph N/A   Scattered Clouds
2:53 PM 55.9 °F - 32.0 °F 40% 30.04 in 10.0 mi NNW 11.5 mph 16.1 mph N/A   Scattered Clouds
3:53 PM 55.9 °F - 32.0 °F 40% 30.04 in 10.0 mi NNW 9.2 mph 16.1 mph N/A   Scattered Clouds
4:53 PM 57.0 °F - 30.9 °F 37% 30.04 in 10.0 mi NNW 9.2 mph - N/A   Partly Cloudy
5:53 PM 55.0 °F - 30.0 °F 38% 30.06 in 10.0 mi NNW 11.5 mph - N/A   Partly Cloudy
6:53 PM 52.0 °F - 32.0 °F 47% 30.07 in 10.0 mi NNW 10.4 mph - N/A   Partly Cloudy
7:53 PM 48.0 °F - 32.0 °F 54% 30.09 in 10.0 mi NW 8.1 mph - N/A   Clear
8:53 PM 45.0 °F 41.8 °F 34.0 °F 65% 30.11 in 10.0 mi North 5.8 mph - N/A   Clear
9:53 PM 46.0 °F 43.1 °F 33.1 °F 61% 30.11 in 10.0 mi North 5.8 mph - N/A   Clear
10:53 PM 43.0 °F - 35.1 °F 74% 30.12 in 10.0 mi Calm Calm - N/A   Clear
11:53 PM 42.1 °F - 35.1 °F 76% 30.11 in 10.0 mi Calm Calm - N/A   Clear